Aktuell
News
Messwerte
Diagramme
Archiv
Wettervorhersage
Regen
Wettergefahren

Astro & Geo
Health
Pegel
Gästebuch
Kontakt
Impressum
Datenschutz
App

Wolkig bei 1.9 °C – Luftdruck: 1022.5 hPa – Wind: SSO 4.7 km/h
Messwerte von 15:06 Uhr; Warnsymbol: Datenbasis DWD; Wetterzustand powered by OpenWeatherMap, CC BY-SA 4.0
Übersicht
Heute
Gestern
Vor 1 Jahr
Info
Heute – Der Tag im Rückblick
 
Messwerte von Montag, 30.11.2020
Symbol
Zeitpunkt
Wetter-
zustand
Zeitpunkt
Temperatur
gefühlt
Zeitpunkt
Luftfeuchte
Taupunkt
Zeitpunkt
Luftdruck
Zeitpunkt
Wind
Zeitpunkt
Windböen
Max 15 Min.
Wind-
richtung
Zeitpunkt
Regen
Summe 1 h
Regenrate
Max 15 Min.
UV-Index
Max 15 Min.
Pegel Köln
Zeitpunkt
Warnlage
Zeitpunkt
00:15 Wolkenlos2 -1.2 °C
-5.4 °C
85 %
-3.5 °C
1027.1 hPa 1.4 km/h
1 Bft
9.7 km/h
2 Bft
SSO -
0.0 mm/h
0.0 150 cm
00:30 Wolkenlos2 -1.3 °C
-3.6 °C
84 %
-3.7 °C
1027.0 hPa 4.7 km/h
1 Bft
13.0 km/h
3 Bft
OSO -
0.0 mm/h
0.0 150 cm
00:45 Wolkenlos2 -1.3 °C
-4.1 °C
84 %
-3.7 °C
1027.1 hPa 4.7 km/h
1 Bft
13.0 km/h
3 Bft
OSO -
0.0 mm/h
0.0 150 cm
01:00 Wolkenlos2 -1.6 °C
-3.1 °C
85 %
-3.8 °C
1027.2 hPa 1.4 km/h
1 Bft
11.2 km/h
2 Bft
OSO 0.00 mm
0.0 mm/h
0.0 150 cm
01:15 Wolkenlos2 -1.6 °C
-2.3 °C
86 %
-3.7 °C
1027.3 hPa 4.7 km/h
1 Bft
13.0 km/h
3 Bft
OSO -
0.0 mm/h
0.0 150 cm
01:30 Wolkenlos2 -1.6 °C
-1.6 °C
86 %
-3.7 °C
1027.1 hPa 4.7 km/h
1 Bft
13.0 km/h
3 Bft
OSO -
0.0 mm/h
0.0 150 cm
01:45 Wolkenlos2 -1.8 °C
-2.5 °C
86 %
-3.9 °C
1027.0 hPa 1.4 km/h
1 Bft
7.9 km/h
2 Bft
OSO -
0.0 mm/h
0.0 150 cm
02:00 Wolkenlos2 -1.8 °C
-1.8 °C
87 %
-3.7 °C
1027.1 hPa 3.2 km/h
1 Bft
11.2 km/h
2 Bft
SO 0.00 mm
0.0 mm/h
0.0 149 cm
02:15 Wolkenlos2 -1.9 °C
-2.6 °C
87 %
-3.8 °C
1027.0 hPa 3.2 km/h
1 Bft
11.2 km/h
2 Bft
SO -
0.0 mm/h
0.0 149 cm
02:30 Wolkenlos2 -1.9 °C
-2.6 °C
87 %
-3.8 °C
1026.9 hPa 3.2 km/h
1 Bft
6.5 km/h
2 Bft
SO -
0.0 mm/h
0.0 149 cm
02:45 Wolkenlos2 -1.9 °C
-2.6 °C
87 %
-3.8 °C
1026.9 hPa 3.2 km/h
1 Bft
11.2 km/h
2 Bft
SO -
0.0 mm/h
0.0 149 cm
03:00 Wolkenlos2 -1.9 °C
-1.9 °C
87 %
-3.8 °C
1027.1 hPa 1.4 km/h
1 Bft
9.7 km/h
2 Bft
SSO 0.00 mm
0.0 mm/h
0.0 149 cm
03:15 Wolkenlos2 -2.1 °C
-4.5 °C
87 %
-4.0 °C
1027.0 hPa 3.2 km/h
1 Bft
9.7 km/h
2 Bft
SO -
0.0 mm/h
0.0 149 cm
03:30 Wolkenlos2 -2.1 °C
-2.1 °C
87 %
-4.0 °C
1026.9 hPa 3.2 km/h
1 Bft
7.9 km/h
2 Bft
SO -
0.0 mm/h
0.0 148 cm
03:45 Wolkenlos2 -2.1 °C
-2.1 °C
87 %
-4.0 °C
1027.0 hPa 1.4 km/h
1 Bft
7.9 km/h
2 Bft
SSO -
0.0 mm/h
0.0 148 cm
04:00 Wolkenlos2 -2.1 °C
-2.1 °C
88 %
-4.0 °C
1026.7 hPa 4.7 km/h
1 Bft
9.7 km/h
2 Bft
OSO 0.00 mm
0.0 mm/h
0.0 149 cm
04:15 Wolkenlos2 -2.2 °C
-2.2 °C
88 %
-4.1 °C
1026.9 hPa 1.4 km/h
1 Bft
9.7 km/h
2 Bft
SSO -
0.0 mm/h
0.0 148 cm
04:30 Wolkenlos2 -2.2 °C
-2.2 °C
88 %
-4.1 °C
1026.8 hPa 3.2 km/h
1 Bft
9.7 km/h
2 Bft
SSO -
0.0 mm/h
0.0 148 cm
04:45 Wolkenlos2 -2.2 °C
-2.2 °C
88 %
-4.1 °C
1026.9 hPa 1.4 km/h
1 Bft
7.9 km/h
2 Bft
S -
0.0 mm/h
0.0 148 cm
05:00 Wolkenlos3 -2.3 °C
-3.1 °C
88 %
-4.2 °C
1026.9 hPa 1.4 km/h
1 Bft
3.2 km/h
1 Bft
SSW 0.00 mm
0.0 mm/h
0.0 148 cm
05:15 Wolkenlos3 -2.3 °C
-2.3 °C
89 %
-4.0 °C
1026.9 hPa 1.4 km/h
1 Bft
6.5 km/h
2 Bft
SSO -
0.0 mm/h
0.0 147 cm
05:30 Wolkenlos3 -2.5 °C
-2.5 °C
89 %
-4.2 °C
1026.9 hPa 1.4 km/h
1 Bft
4.7 km/h
1 Bft
S -
0.0 mm/h
0.0 149 cm
05:45 Wolkenlos3 -2.4 °C
-2.4 °C
89 %
-4.1 °C
1026.9 hPa 3.2 km/h
1 Bft
7.9 km/h
2 Bft
SSO -
0.0 mm/h
0.0 147 cm
06:00 Leicht bewölkt3 -2.5 °C
-2.5 °C
89 %
-4.2 °C
1026.9 hPa 1.4 km/h
1 Bft
6.5 km/h
2 Bft
S 0.00 mm
0.0 mm/h
0.0 147 cm
06:15 Leicht bewölkt3 -2.6 °C
-2.6 °C
89 %
-4.3 °C
1026.9 hPa 0.0 km/h
0 Bft
3.2 km/h
1 Bft
S -
0.0 mm/h
0.0 148 cm
06:30 Leicht bewölkt3 -2.6 °C
-2.6 °C
90 %
-4.2 °C
1026.9 hPa 1.4 km/h
1 Bft
6.5 km/h
2 Bft
SSO -
0.0 mm/h
0.0 147 cm
06:45 Leicht bewölkt3 -2.4 °C
-2.4 °C
89 %
-4.1 °C
1026.9 hPa 1.4 km/h
1 Bft
3.2 km/h
1 Bft
SSW -
0.0 mm/h
0.0 147 cm
07:00 Leicht bewölkt3 -2.5 °C
-2.5 °C
90 %
-4.1 °C
1026.7 hPa 1.4 km/h
1 Bft
6.5 km/h
2 Bft
S 0.00 mm
0.0 mm/h
0.0 147 cm
07:15 Leicht bewölkt3 -2.2 °C
-3.0 °C
89 %
-3.9 °C
1026.8 hPa 1.4 km/h
1 Bft
4.7 km/h
1 Bft
S -
0.0 mm/h
0.0 147 cm
07:30 Leicht bewölkt3 -1.9 °C
-1.9 °C
90 %
-3.4 °C
1026.9 hPa 1.4 km/h
1 Bft
6.5 km/h
2 Bft
S -
0.0 mm/h
0.0 147 cm
07:45 Leicht bewölkt3 -2.1 °C
-2.1 °C
90 %
-3.6 °C
1027.0 hPa 1.4 km/h
1 Bft
4.7 km/h
1 Bft
WNW -
0.0 mm/h
0.0 147 cm
08:00 Leicht bewölkt3 -2.3 °C
-2.3 °C
91 %
-3.7 °C
1026.9 hPa 1.4 km/h
1 Bft
6.5 km/h
2 Bft
SW 0.00 mm
0.0 mm/h
0.0 147 cm
08:15 Leicht bewölkt3 -2.2 °C
-3.0 °C
91 %
-3.6 °C
1027.1 hPa 3.2 km/h
1 Bft
7.9 km/h
2 Bft
W -
0.0 mm/h
0.0 147 cm
08:30 Wolkig3 -2.2 °C
-3.0 °C
91 %
-3.6 °C
1027.0 hPa 1.4 km/h
1 Bft
6.5 km/h
2 Bft
S -
0.0 mm/h
0.0 147 cm
08:45 Wolkig3 -2.1 °C
-2.1 °C
91 %
-3.5 °C
1027.0 hPa 1.4 km/h
1 Bft
4.7 km/h
1 Bft
SSW -
0.0 mm/h
0.0 147 cm
09:00 Wolkig3 -2.1 °C
-2.1 °C
92 %
-3.4 °C
1026.8 hPa 1.4 km/h
1 Bft
4.7 km/h
1 Bft
SSW 0.00 mm
0.0 mm/h
0.0 147 cm
09:15 Wolkig3 -1.9 °C
-1.9 °C
92 %
-3.1 °C
1027.1 hPa 0.0 km/h
0 Bft
3.2 km/h
1 Bft
NW -
0.0 mm/h
0.0 146 cm
09:30 Wolkig2 -2.1 °C
-3.7 °C
91 %
-3.4 °C
1027.1 hPa 1.4 km/h
1 Bft
4.7 km/h
1 Bft
NNW -
0.0 mm/h
0.0 146 cm
09:45 Wolkig3 -2.3 °C
-2.3 °C
92 %
-3.6 °C
1026.9 hPa 1.4 km/h
1 Bft
7.9 km/h
2 Bft
NW -
0.0 mm/h
0.0 146 cm
10:00 Wolkig3 -1.8 °C
-1.8 °C
92 %
-3.0 °C
1026.7 hPa 0.0 km/h
0 Bft
3.2 km/h
1 Bft
NW 0.00 mm
0.0 mm/h
0.0 147 cm
10:15 Wolkig3 -1.3 °C
-1.3 °C
91 %
-2.6 °C
1026.8 hPa 1.4 km/h
1 Bft
6.5 km/h
2 Bft
ONO -
0.0 mm/h
0.0 147 cm
10:30 Wolkig3 -1.2 °C
-1.2 °C
90 %
-2.7 °C
1026.7 hPa 1.4 km/h
1 Bft
9.7 km/h
2 Bft
ONO -
0.0 mm/h
0.0 147 cm
10:45 Wolkig3 -1.2 °C
-1.9 °C
90 %
-2.7 °C
1026.6 hPa 1.4 km/h
1 Bft
7.9 km/h
2 Bft
OSO -
0.0 mm/h
0.0 146 cm
11:00 Wolkig3 -1.1 °C
-1.8 °C
89 %
-2.7 °C
1026.4 hPa 3.2 km/h
1 Bft
7.9 km/h
2 Bft
O 0.00 mm
0.0 mm/h
0.0 147 cm
11:15 Wolkig3 -1.3 °C
-2.0 °C
89 %
-2.9 °C
1026.4 hPa 3.2 km/h
1 Bft
9.7 km/h
2 Bft
OSO -
0.0 mm/h
0.0 146 cm
11:30 Wolkig3 -1.2 °C
-1.9 °C
88 %
-3.0 °C
1026.1 hPa 3.2 km/h
1 Bft
7.9 km/h
2 Bft
O -
0.0 mm/h
0.0 147 cm
11:45 Wolkig3 -0.9 °C
-2.4 °C
87 %
-2.8 °C
1026.0 hPa 3.2 km/h
1 Bft
7.9 km/h
2 Bft
SO -
0.0 mm/h
0.6 146 cm
12:00 Wolkig3 -0.3 °C
-0.3 °C
85 %
-2.6 °C
1025.9 hPa 3.2 km/h
1 Bft
9.7 km/h
2 Bft
SSO 0.00 mm
0.0 mm/h
0.8 146 cm
12:15 Wolkig3 -0.1 °C
-0.7 °C
83 %
-2.7 °C
1025.8 hPa 1.4 km/h
1 Bft
7.9 km/h
2 Bft
S -
0.0 mm/h
0.9 146 cm
12:30 Wolkig3 0.1 °C
-0.5 °C
83 %
-2.5 °C
1025.4 hPa 4.7 km/h
1 Bft
11.2 km/h
2 Bft
SO -
0.0 mm/h
0.8 146 cm
12:45 Wolkig3 0.2 °C
0.2 °C
83 %
-2.4 °C
1025.2 hPa 3.2 km/h
1 Bft
9.7 km/h
2 Bft
SSO -
0.0 mm/h
0.5 146 cm
13:00 Wolkig3 0.6 °C
0.1 °C
84 %
-2.0 °C
1024.9 hPa 3.2 km/h
1 Bft
7.9 km/h
2 Bft
S 0.00 mm
0.0 mm/h
0.0 146 cm
13:15 Wolkig3 0.6 °C
-1.5 °C
84 %
-2.0 °C
1024.7 hPa 3.2 km/h
1 Bft
9.7 km/h
2 Bft
SO -
0.0 mm/h
0.0 146 cm
13:30 Wolkig3 0.7 °C
-0.6 °C
83 %
-2.0 °C
1024.2 hPa 4.7 km/h
1 Bft
13.0 km/h
3 Bft
S -
0.0 mm/h
0.0 146 cm
13:45 Wolkig3 1.8 °C
0.6 °C
81 %
-1.3 °C
1023.8 hPa 4.7 km/h
1 Bft
14.4 km/h
3 Bft
SSO -
0.0 mm/h
0.8 146 cm
14:00 Leicht bewölkt3 1.6 °C
1.6 °C
81 %
-1.5 °C
1023.5 hPa 6.5 km/h
2 Bft
13.0 km/h
3 Bft
SO 0.00 mm
0.0 mm/h
0.6 146 cm
14:15 Leicht bewölkt3 1.7 °C
-0.2 °C
80 %
-1.6 °C
1023.4 hPa 4.7 km/h
1 Bft
13.0 km/h
3 Bft
SSO -
0.0 mm/h
0.0 146 cm
14:30 Wolkig3 1.8 °C
-0.1 °C
79 %
-1.6 °C
1023.2 hPa 3.2 km/h
1 Bft
13.0 km/h
3 Bft
SO -
0.0 mm/h
0.0 146 cm
14:45 Wolkig3 1.9 °C
0.0 °C
79 %
-1.5 °C
1022.8 hPa 4.7 km/h
1 Bft
13.0 km/h
3 Bft
SO -
0.0 mm/h
0.0 146 cm
15:00 Wolkig3 1.9 °C
0.7 °C
80 %
-1.4 °C
1022.8 hPa 4.7 km/h
1 Bft
14.4 km/h
3 Bft
SO
0.0 mm/h
0.0 147 cm




-
-- cm




-
-- cm




-
-- cm





-- cm




-
-- cm




-
-- cm




-
-- cm





-- cm




-
-- cm




-
-- cm




-
-- cm





-- cm




-
-- cm




-
-- cm




-
-- cm





-- cm




-
-- cm




-
-- cm




-
-- cm





-- cm




-
-- cm




-
-- cm




-
-- cm





-- cm




-
-- cm




-
-- cm




-
-- cm





-- cm




-
-- cm




-
-- cm




-
-- cm





-- cm




-
-- cm




-
-- cm




-
-- cm





-- cm
Messwerte stehen ab 00:15 Uhr zur Verfügung.
Aus technischen Gründen wird die Niederschlagssumme der vorangegangenen Stunde erst um :30 der Folgestunde aktualisiert. Die Pegelstände werden ab 01:45 Uhr 15 Minuten zeitversetzt aktualisiert. Datenbasis Wetterzustand: ¹ Wetterstation Köln-Nippes (Stellwerk), ² powered by , ³ powered by OpenWeatherMap, CC BY-SA 4.0; Warnlage: DWD, Pegelonline, LANUV; Pegel Köln: Pegelonline
 
Extrem- und Durchschnittswerte
  Temperatur Luftfeuchte Luftdruck Wind Windböen Wind-
richtung
Regen UV-Index Pegel Köln KKT
Min

Max

Ø
-2.7 °C
06:17 Uhr
2.0 °C
14:48 Uhr
-1.3 °C
79.0 %
13:46 Uhr
92.0 %
08:31 Uhr
87.2 %
1022.6 hPa
15:02 Uhr
1027.3 hPa
01:09 Uhr
1026.3 hPa
 
 
6.5 km/h
00:22 Uhr
2.8 km/h
 
 
14.4 km/h
13:38 Uhr
 
 
 
SO
 
 
 
 
0.00 mm
 
 
 
 
0.9
12:04 Uhr
 
146 cm
09:15 Uhr
150 cm
00:15 Uhr
 
FT
  gefühlt Taupunkt   Wind Windböen   Regenrate Ozon Sonne Mond
Min

Max

Ø
-6.1 °C
05:32 Uhr
2.0 °C
14:48 Uhr
 
-4.4 °C
06:17 Uhr
-1.2 °C
12:37 Uhr
-3.3 °C
   
 
2 Bft
00:22 Uhr
2.8 km/h
 
 
3 Bft
13:38 Uhr
 
   
 
0.0 mm/h
00:00 Uhr
 
 

––
––:–– Uhr
 
▲ 08:12 Uhr
▼ 16:30 Uhr
▼ 08:05 Uhr
▲ 16:38 Uhr
KKT = Klimatologischer Kenntag: ET = Eistag, FT = Frosttag, KT = Kalter Tag, ST = Sommertag, HT = Hitzetag, TN = Tropennacht, NT = Niederschlagstag, SH = Schneehöhe (Max Tag); Datenbasis Ozon: LANUV, Land NRW, dl-de/by-2-0
 
Detaillierte Warnlage
FROST
29.11.20, 19:00 Uhr bis 30.11.20, 11:00 Uhr
Es tritt mäßiger Frost zwischen -2 °C und -6 °C auf. In Bodennähe wird mäßiger Frost zwischen -4 °C und -8 °C erwartet.















30.11.20

30.11.20

30.11.20

30.11.20

30.11.20

30.11.20

30.11.20
Datenbasis: DWD, Pegelonline, LANUV